ZHONGXING-2C

Last updated on Sun Nov 16 2025 00:03:43 GMT+0000 (Coordinated Universal Time)

1 41021U 15063A 25319.54396237 -.00000316 00000+0 00000+0 0 9991 2 41021 0.1657 90.4240 0008171 142.2614 121.4308 1.00274305 36847
UTC large
Height (km)
Speed (km/s)
/
Latitude / Longitude
Inclination (degrees)
Orbital Period (minutes)
Azimuth
Elevation
Range (km)
Doppler Factor

Next 0 passes for location: London (51.5072 / 0.1276)

Sorry there are no passes over London.